Time,TemperatureF,DewpointF,PressureIn,WindDirection,WindDirectionDegrees,WindSpeedMPH,WindSpeedGustMPH,Humidity,HourlyPrecipIn,Conditions,Clouds,dailyrainin,SoftwareType,DateUTC
2013-03-02 00:14:00,-999.0,-99.9,30.14,North,-999,-999.0,-999.0,-999,0.00,,,0.00,weatherlink.com 1.10,2013-03-02 06:14:00,
2013-03-02 00:29:00,-999.0,-99.9,30.14,North,-999,-999.0,-999.0,-999,0.00,,,0.00,weatherlink.com 1.10,2013-03-02 06:29:00,
2013-03-02 00:44:00,-999.0,-99.9,30.14,North,-999,-999.0,-999.0,-999,0.00,,,0.00,weatherlink.com 1.10,2013-03-02 06:44:00,
2013-03-02 00:59:00,-999.0,-99.9,30.14,North,-999,-999.0,-999.0,-999,0.00,,,0.00,weatherlink.com 1.10,2013-03-02 06:59:00,
2013-03-02 01:14:00,-999.0,-99.9,30.14,North,-999,-999.0,-999.0,-999,0.00,,,0.00,weatherlink.com 1.10,2013-03-02 07:14:00,
2013-03-02 01:29:00,-999.0,-99.9,30.14,North,-999,-999.0,-999.0,-999,0.00,,,0.00,weatherlink.com 1.10,2013-03-02 07:29:00,
2013-03-02 01:44:00,-999.0,-99.9,30.14,North,-999,-999.0,-999.0,-999,0.00,,,0.00,weatherlink.com 1.10,2013-03-02 07:44:00,
2013-03-02 01:59:00,-999.0,-99.9,30.14,North,-999,-999.0,-999.0,-999,0.00,,,0.00,weatherlink.com 1.10,2013-03-02 07:59:00,
2013-03-02 02:14:00,-999.0,-99.9,30.14,North,-999,-999.0,-999.0,-999,0.00,,,0.00,weatherlink.com 1.10,2013-03-02 08:14:00,
2013-03-02 02:29:00,-999.0,-99.9,30.13,North,-999,-999.0,-999.0,-999,0.00,,,0.00,weatherlink.com 1.10,2013-03-02 08:29:00,
2013-03-02 02:44:00,-999.0,-99.9,30.13,North,-999,-999.0,-999.0,-999,0.00,,,0.00,weatherlink.com 1.10,2013-03-02 08:44:00,
2013-03-02 03:00:00,-999.0,-99.9,30.13,North,-999,-999.0,-999.0,-999,0.00,,,0.00,weatherlink.com 1.10,2013-03-02 09:00:00,
2013-03-02 03:15:00,-999.0,-99.9,30.13,North,-999,-999.0,-999.0,-999,0.00,,,0.00,weatherlink.com 1.10,2013-03-02 09:15:00,
2013-03-02 03:30:00,-999.0,-99.9,30.13,North,-999,-999.0,-999.0,-999,0.00,,,0.00,weatherlink.com 1.10,2013-03-02 09:30:00,
2013-03-02 03:45:00,-999.0,-99.9,30.13,North,-999,-999.0,-999.0,-999,0.00,,,0.00,weatherlink.com 1.10,2013-03-02 09:45:00,
2013-03-02 04:00:00,-999.0,-99.9,30.14,North,-999,-999.0,-999.0,-999,0.00,,,0.00,weatherlink.com 1.10,2013-03-02 10:00:00,
2013-03-02 04:15:00,-999.0,-99.9,30.14,North,-999,-999.0,-999.0,-999,0.00,,,0.00,weatherlink.com 1.10,2013-03-02 10:15:00,
2013-03-02 04:30:00,-999.0,-99.9,30.14,North,-999,-999.0,-999.0,-999,0.00,,,0.00,weatherlink.com 1.10,2013-03-02 10:30:00,
2013-03-02 04:45:00,-999.0,-99.9,30.14,North,-999,-999.0,-999.0,-999,0.00,,,0.00,weatherlink.com 1.10,2013-03-02 10:45:00,
2013-03-02 05:00:00,-999.0,-99.9,30.14,North,-999,-999.0,-999.0,-999,0.00,,,0.00,weatherlink.com 1.10,2013-03-02 11:00:00,
2013-03-02 05:15:00,-999.0,-99.9,30.14,North,-999,-999.0,-999.0,-999,0.00,,,0.00,weatherlink.com 1.10,2013-03-02 11:15:00,
2013-03-02 05:30:00,-999.0,-99.9,30.15,North,-999,-999.0,-999.0,-999,0.00,,,0.00,weatherlink.com 1.10,2013-03-02 11:30:00,
2013-03-02 05:45:00,-999.0,-99.9,30.15,North,-999,-999.0,-999.0,-999,0.00,,,0.00,weatherlink.com 1.10,2013-03-02 11:45:00,
2013-03-02 06:00:00,-999.0,-99.9,30.15,North,-999,-999.0,-999.0,-999,0.00,,,0.00,weatherlink.com 1.10,2013-03-02 12:00:00,
2013-03-02 06:16:00,-999.0,-99.9,30.16,North,-999,-999.0,-999.0,-999,0.00,,,0.00,weatherlink.com 1.10,2013-03-02 12:16:00,
2013-03-02 06:31:00,-999.0,-99.9,30.16,North,-999,-999.0,-999.0,-999,0.00,,,0.00,weatherlink.com 1.10,2013-03-02 12:31:00,
2013-03-02 06:46:00,-999.0,-99.9,30.17,North,-999,-999.0,-999.0,-999,0.00,,,0.00,weatherlink.com 1.10,2013-03-02 12:46:00,
2013-03-02 07:01:00,-999.0,-99.9,30.17,North,-999,-999.0,-999.0,-999,0.00,,,0.00,weatherlink.com 1.10,2013-03-02 13:01:00,
2013-03-02 07:16:00,-999.0,-99.9,30.18,North,-999,-999.0,-999.0,-999,0.00,,,0.00,weatherlink.com 1.10,2013-03-02 13:16:00,
2013-03-02 07:31:00,-999.0,-99.9,30.18,North,-999,-999.0,-999.0,-999,0.00,,,0.00,weatherlink.com 1.10,2013-03-02 13:31:00,
2013-03-02 07:46:00,30.0,26.0,30.19,NNW,348,8.0,13.0,84,0.00,,,0.00,weatherlink.com 1.10,2013-03-02 13:46:00,
2013-03-02 08:01:00,30.1,26.0,30.19,North,355,5.0,15.0,85,0.00,,,0.00,weatherlink.com 1.10,2013-03-02 14:01:00,
2013-03-02 08:16:00,30.3,27.0,30.19,NNW,332,9.0,15.0,86,0.00,,,0.00,weatherlink.com 1.10,2013-03-02 14:16:00,
2013-03-02 08:31:00,30.3,27.0,30.20,NNW,342,9.0,18.0,86,0.00,,,0.00,weatherlink.com 1.10,2013-03-02 14:31:00,
2013-03-02 08:46:00,30.5,27.0,30.19,NNW,348,10.0,17.0,85,0.00,,,0.00,weatherlink.com 1.10,2013-03-02 14:46:00,
2013-03-02 09:01:00,30.4,27.0,30.20,NNW,337,10.0,16.0,87,0.00,,,0.00,weatherlink.com 1.10,2013-03-02 15:01:00,
2013-03-02 09:16:00,30.3,27.0,30.20,NW,324,9.0,17.0,87,0.00,,,0.00,weatherlink.com 1.10,2013-03-02 15:16:00,
2013-03-02 09:31:00,30.4,27.0,30.21,NW,321,9.0,14.0,87,0.00,,,0.00,weatherlink.com 1.10,2013-03-02 15:31:00,
2013-03-02 09:46:00,30.1,27.0,30.21,NW,324,12.0,17.0,88,0.00,,,0.00,weatherlink.com 1.10,2013-03-02 15:46:00,
2013-03-02 10:01:00,29.8,27.0,30.21,NW,315,12.0,17.0,88,0.00,,,0.00,weatherlink.com 1.10,2013-03-02 16:01:00,
2013-03-02 10:16:00,29.9,27.0,30.21,NNW,341,10.0,16.0,88,0.00,,,0.00,weatherlink.com 1.10,2013-03-02 16:16:00,
2013-03-02 10:31:00,30.0,27.0,30.22,NW,313,11.0,15.0,87,0.00,,,0.00,weatherlink.com 1.10,2013-03-02 16:31:00,
2013-03-02 10:46:00,30.1,26.0,30.22,NW,316,10.0,17.0,86,0.00,,,0.00,weatherlink.com 1.10,2013-03-02 16:46:00,
2013-03-02 11:01:00,30.2,26.0,30.22,NNW,336,9.0,14.0,85,0.00,,,0.00,weatherlink.com 1.10,2013-03-02 17:01:00,
2013-03-02 11:16:00,30.2,26.0,30.21,NW,318,9.0,15.0,84,0.00,,,0.00,weatherlink.com 1.10,2013-03-02 17:16:00,
2013-03-02 11:31:00,30.3,26.0,30.22,NNW,336,8.0,15.0,85,0.00,,,0.00,weatherlink.com 1.10,2013-03-02 17:31:00,
2013-03-02 11:46:00,30.5,27.0,30.21,NW,320,10.0,16.0,85,0.00,,,0.00,weatherlink.com 1.10,2013-03-02 17:46:00,
2013-03-02 12:01:00,30.4,26.0,30.21,WNW,302,12.0,15.0,85,0.00,,,0.00,weatherlink.com 1.10,2013-03-02 18:01:00,
2013-03-02 12:16:00,30.6,27.0,30.21,NW,306,10.0,17.0,85,0.00,,,0.00,weatherlink.com 1.10,2013-03-02 18:16:00,
2013-03-02 12:31:00,30.8,27.0,30.20,NNW,327,11.0,16.0,85,0.00,,,0.00,weatherlink.com 1.10,2013-03-02 18:31:00,
2013-03-02 12:46:00,30.9,27.0,30.20,NNW,336,11.0,15.0,84,0.00,,,0.00,weatherlink.com 1.10,2013-03-02 18:46:00,
2013-03-02 13:01:00,31.5,27.0,30.19,NNW,329,14.0,17.0,83,0.00,,,0.00,weatherlink.com 1.10,2013-03-02 19:01:00,
2013-03-02 13:16:00,32.0,28.0,30.19,NW,322,13.0,15.0,84,0.00,,,0.00,weatherlink.com 1.10,2013-03-02 19:16:00,
2013-03-02 13:31:00,32.4,28.0,30.18,NW,314,9.0,17.0,83,0.00,,,0.00,weatherlink.com 1.10,2013-03-02 19:31:00,
2013-03-02 13:46:00,32.6,28.0,30.18,NW,324,13.0,16.0,82,0.00,,,0.00,weatherlink.com 1.10,2013-03-02 19:46:00,
2013-03-02 14:02:00,32.1,27.0,30.18,NNW,335,12.0,17.0,81,0.00,,,0.00,weatherlink.com 1.10,2013-03-02 20:02:00,
2013-03-02 14:17:00,33.0,28.0,30.18,NNW,328,14.0,17.0,81,0.00,,,0.00,weatherlink.com 1.10,2013-03-02 20:17:00,
2013-03-02 14:32:00,32.6,29.0,30.19,NW,311,12.0,16.0,86,0.00,,,0.00,weatherlink.com 1.10,2013-03-02 20:32:00,
2013-03-02 14:47:00,34.1,29.0,30.19,North,350,10.0,13.0,81,0.00,,,0.00,weatherlink.com 1.10,2013-03-02 20:47:00,
2013-03-02 15:02:00,32.3,27.0,30.19,NNW,335,11.0,15.0,82,0.00,,,0.00,weatherlink.com 1.10,2013-03-02 21:02:00,
2013-03-02 15:17:00,31.7,28.0,30.19,NW,318,8.0,11.0,86,0.00,,,0.00,weatherlink.com 1.10,2013-03-02 21:17:00,
2013-03-02 15:32:00,32.1,28.0,30.19,NW,317,13.0,14.0,83,0.00,,,0.00,weatherlink.com 1.10,2013-03-02 21:32:00,
2013-03-02 15:47:00,31.9,28.0,30.19,NNW,327,7.0,12.0,84,0.00,,,0.00,weatherlink.com 1.10,2013-03-02 21:47:00,
2013-03-02 16:02:00,32.3,27.0,30.19,WNW,300,10.0,13.0,81,0.00,,,0.00,weatherlink.com 1.10,2013-03-02 22:02:00,
2013-03-02 16:17:00,32.5,26.0,30.19,NNW,339,7.0,16.0,78,0.00,,,0.00,weatherlink.com 1.10,2013-03-02 22:17:00,
2013-03-02 16:32:00,33.0,26.0,30.19,NNW,335,7.0,15.0,74,0.00,,,0.00,weatherlink.com 1.10,2013-03-02 22:32:00,
2013-03-02 16:47:00,32.8,24.0,30.19,North,351,10.0,14.0,69,0.00,,,0.00,weatherlink.com 1.10,2013-03-02 22:47:00,
2013-03-02 17:02:00,33.2,24.0,30.19,NW,325,8.0,13.0,69,0.00,,,0.00,weatherlink.com 1.10,2013-03-02 23:02:00,
2013-03-02 17:17:00,33.1,23.0,30.20,NNW,329,12.0,16.0,67,0.00,,,0.00,weatherlink.com 1.10,2013-03-02 23:17:00,
2013-03-02 17:32:00,33.0,23.0,30.20,NNW,347,8.0,12.0,68,0.00,,,0.00,weatherlink.com 1.10,2013-03-02 23:32:00,
2013-03-02 17:47:00,32.8,22.0,30.20,NNW,341,9.0,13.0,65,0.00,,,0.00,weatherlink.com 1.10,2013-03-02 23:47:00,
2013-03-02 18:02:00,32.6,22.0,30.21,NNW,335,8.0,14.0,64,0.00,,,0.00,weatherlink.com 1.10,2013-03-03 00:02:00,
2013-03-02 18:17:00,32.4,22.0,30.21,North,5,11.0,12.0,65,0.00,,,0.00,weatherlink.com 1.10,2013-03-03 00:17:00,
2013-03-02 18:32:00,32.4,21.0,30.21,NNW,336,8.0,12.0,64,0.00,,,0.00,weatherlink.com 1.10,2013-03-03 00:32:00,
2013-03-02 18:47:00,32.3,22.0,30.22,North,351,5.0,10.0,67,0.00,,,0.00,weatherlink.com 1.10,2013-03-03 00:47:00,
2013-03-02 19:02:00,32.1,23.0,30.21,NNW,339,8.0,11.0,68,0.00,,,0.00,weatherlink.com 1.10,2013-03-03 01:02:00,
2013-03-02 19:17:00,31.9,22.0,30.21,North,355,6.0,12.0,66,0.00,,,0.00,weatherlink.com 1.10,2013-03-03 01:17:00,
2013-03-02 19:32:00,31.9,22.0,30.21,NNW,344,8.0,15.0,66,0.00,,,0.00,weatherlink.com 1.10,2013-03-03 01:32:00,
2013-03-02 19:47:00,31.9,22.0,30.21,NNW,340,7.0,10.0,67,0.00,,,0.00,weatherlink.com 1.10,2013-03-03 01:47:00,
2013-03-02 20:02:00,31.9,23.0,30.21,NW,325,9.0,11.0,71,0.00,,,0.00,weatherlink.com 1.10,2013-03-03 02:02:00,
2013-03-02 20:17:00,31.8,23.0,30.21,NNW,338,7.0,11.0,70,0.00,,,0.00,weatherlink.com 1.10,2013-03-03 02:17:00,
2013-03-02 20:32:00,31.8,22.0,30.22,NW,323,8.0,15.0,67,0.00,,,0.00,weatherlink.com 1.10,2013-03-03 02:32:00,
2013-03-02 20:47:00,31.8,23.0,30.22,NW,316,14.0,16.0,70,0.00,,,0.00,weatherlink.com 1.10,2013-03-03 02:47:00,
2013-03-02 21:17:00,31.0,23.0,30.22,NW,318,10.0,14.0,72,0.00,,,0.00,weatherlink.com 1.10,2013-03-03 03:17:00,
2013-03-02 21:32:00,30.7,23.0,30.22,NNW,333,7.0,13.0,74,0.00,,,0.00,weatherlink.com 1.10,2013-03-03 03:32:00,
2013-03-02 21:47:00,30.2,23.0,30.22,NW,316,7.0,11.0,75,0.00,,,0.00,weatherlink.com 1.10,2013-03-03 03:47:00,
2013-03-02 22:02:00,30.0,23.0,30.22,NW,319,5.0,11.0,74,0.00,,,0.00,weatherlink.com 1.10,2013-03-03 04:02:00,
2013-03-02 22:17:00,29.6,23.0,30.22,NNW,339,5.0,10.0,75,0.00,,,0.00,weatherlink.com 1.10,2013-03-03 04:17:00,
2013-03-02 22:32:00,29.7,23.0,30.22,NNW,337,7.0,12.0,75,0.00,,,0.00,weatherlink.com 1.10,2013-03-03 04:32:00,
2013-03-02 22:47:00,29.4,23.0,30.22,NNW,329,5.0,11.0,76,0.00,,,0.00,weatherlink.com 1.10,2013-03-03 04:47:00,
2013-03-02 23:02:00,29.2,23.0,30.22,NNW,328,8.0,10.0,76,0.00,,,0.00,weatherlink.com 1.10,2013-03-03 05:02:00,
2013-03-02 23:17:00,29.0,22.0,30.22,NNW,331,6.0,10.0,76,0.00,,,0.00,weatherlink.com 1.10,2013-03-03 05:17:00,
2013-03-02 23:32:00,28.9,22.0,30.21,NW,319,5.0,9.0,76,0.00,,,0.00,weatherlink.com 1.10,2013-03-03 05:32:00,
2013-03-02 23:47:00,28.6,22.0,30.21,NNW,327,5.0,9.0,76,0.00,,,0.00,weatherlink.com 1.10,2013-03-03 05:47:00,